Regional Weather Roundup
Issued by NWS Memphis, TN

Home | Current Version | Previous Version | Text Only | Print | Product List | Glossary On
Versions: 1 2 3 4 5 6 7 8 9 10 11 12 13 14 15 16 17 18 19 20 21 22 23 24 25 26 27 28 29 30 31 32 33 34 35 36 37 38 39 40 41 42 43 44 45 46 47 48 49 50
000
ASUS44 KMEG 301710
RWRMEG
MEMPHIS CWA HOURLY WEATHER ROUNDUP
NATIONAL WEATHER SERVICE MEMPHIS TN
1200 PM CDT FRI SEP 30 2016

...WEST TENNESSEE...

CITY           SKY/WX    TMP DP  RH WIND       PRES   REMARKS
MEMPHIS INTL   PTSUNNY   73  55  53 VRB7      30.12F
NWS MEMPHIS      N/A     68 N/A N/A MISG        N/A
JACKSON        CLOUDY   N/A N/A N/A W6        30.11F
BOLIVAR        CLOUDY    64  55  72 VRB6      30.12F
LEXINGTON      CLOUDY    64  54  68 SW7       30.10F
DYERSBURG      CLOUDY   N/A N/A N/A MISG        N/A
UNION CITY     PTSUNNY   66  57  72 VRB5      30.09S
PARIS          MOSUNNY   66  54  63 W8        30.08F
HUNTINGDON     PTSUNNY   66  55  68 W7        30.09S


...EASTERN ARKANSAS...

CITY           SKY/WX    TMP DP  RH WIND       PRES   REMARKS
JONESBORO      PTSUNNY   71  56  58 VRB3      30.12F
WEST MEMPHIS   CLOUDY    69  53  56 NW5       30.11F
BATESVILLE     MOSUNNY   72  55  56 NW7       30.14F
NEWPORT        PTSUNNY   69  55  60 N8        30.13F
WALNUT RIDGE   PTSUNNY   72  55  56 N13       30.12S
BLYTHEVILLE    PTSUNNY   70  57  63 VRB6      30.12R
NW BLYTHEVILLE CLOUDY    70  57  64 NW9       30.11S
SEARCY         PTSUNNY   73  57  57 MISG      30.15F
STUTTGART      MOSUNNY   73  55  53 N13       30.14F
PINE BLUFF     SUNNY     73  56  54 NW8       30.14F
MONTICELLO     SUNNY     75  55  49 VRB7      30.14F


...NORTH MISSISSIPPI...

CITY           SKY/WX    TMP DP  RH WIND       PRES   REMARKS
TUPELO         SUNNY     73  49  42 VRB3      30.10F
OXFORD         PTSUNNY   68  54  60 NW9G17    30.13F
BATESVILLE     PTSUNNY   70  55  60 NW5       30.13S
OLIVE BRANCH   PTSUNNY  N/A N/A N/A N7        30.12S
TUNICA         PTSUNNY   68  54  60 N6        30.14R
CLARKSDALE     PTSUNNY   73  57  56 W6        30.12F
CORINTH        MOSUNNY   68  54  60 N5        30.11F
GREENWOOD      SUNNY     74  53  48 CALM      30.12F
COLUMBUS       MOSUNNY   72  53  51 W2        30.10F
STARKVILLE     MOSUNNY   72  54  53 N3        30.12F
GOLDEN TRIANGL MOSUNNY   73  52  46 N7        30.11F


...SOUTHEAST MISSOURI...

CITY           SKY/WX    TMP DP  RH WIND       PRES   REMARKS
KENNETT        PTSUNNY   72  57  60 NW10      30.10F
WEST PLAINS    PTSUNNY   68  54  60 N10       30.17F
POPLAR BLUFF   CLOUDY    69  56  62 N3        30.10F
CAPE GIRARDEAU LGT RAIN  64  57  78 NW6       30.08F


...NORTHWEST ALABAMA...

CITY           SKY/WX    TMP DP  RH WIND       PRES   REMARKS
MUSCLE SHOALS  CLOUDY    67  54  63 NW5       30.13S


...MIDDLE TENNESSEE...

CITY           SKY/WX    TMP DP  RH WIND       PRES   REMARKS
NASHVILLE      CLOUDY    63  53  70 W8        30.08S
CLARKSVILLE    LGT RAIN  64  56  75 W9        30.05F
COLUMBIA       CLOUDY    63  63 100 SW13      30.09F


...WESTERN KENTUCKY...

CITY           SKY/WX    TMP DP  RH WIND       PRES   REMARKS
PADUCAH        LGT RAIN  63  58  83 W8        30.06S
FORT CAMPBELL  CLOUDY    64  57  77 W12       30.05S


...CENTRAL ARKANSAS...

CITY           SKY/WX    TMP DP  RH WIND       PRES   REMARKS
LITTLE ROCK    MOSUNNY   74  55  51 N7        30.15F


SKY/WX REPORTED AS FAIR MEANS FEW OR NO CLOUDS BELOW
12 THOUSAND FEET.




USA.gov is the U.S. government's official web portal to all federal, state and local government web resources and services.